• In Russia
  • List of Countries
  • For 7 days
  • Water Temperature
  • Satellite Maps
  • Weather Map
  • Weather Widgets
  • user-avatar
    Login

    Hourly Weather Artashat

    Today, 25 September, Tuesday

    Time Temperature Precipitation Wind Pressure Humidity
    00:00 +13°C° 0 mm 1 mps 605 mmHg 48%
    01:00 +12°C° 0 mm 1 mps 604 mmHg 49%
    02:00 +12°C° 0 mm 1 mps 604 mmHg 50%
    03:00 +12°C° 0 mm 1 mps 604 mmHg 53%
    04:00 +11°C° 0 mm 1 mps 604 mmHg 55%
    05:00 +11°C° 0 mm 1 mps 603 mmHg 56%
    06:00 +10°C° 0 mm 1 mps 603 mmHg 57%
    07:00 +13°C° 0 mm 1 mps 604 mmHg 49%
    08:00 +15°C° 0 mm 1 mps 605 mmHg 42%
    09:00 +19°C° 0 mm 1 mps 606 mmHg 34%
    10:00 +20°C° 0 mm 1 mps 606 mmHg 31%
    11:00 +21°C° 0 mm 1 mps 606 mmHg 28%
    12:00 +21°C° 0 mm 2 mps 606 mmHg 25%
    13:00 +23°C° 0 mm 2 mps 606 mmHg 24%
    14:00 +23°C° 0 mm 2 mps 606 mmHg 23%
    15:00 +24°C° 0 mm 2 mps 606 mmHg 22%
    16:00 +21°C° 0 mm 2 mps 605 mmHg 25%
    17:00 +21°C° 0 mm 1 mps 604 mmHg 29%
    18:00 +19°C° 0 mm 1 mps 604 mmHg 32%
    19:00 +18°C° 0 mm 1 mps 604 mmHg 34%
    20:00 +16°C° 0 mm 1 mps 604 mmHg 37%
    21:00 +15°C° 0 mm 1 mps 603 mmHg 40%
    22:00 +15°C° 0 mm 1 mps 603 mmHg 42%
    23:00 +14°C° 0 mm 1 mps 603 mmHg 44%

    Tomorrow, 26 September, Wednesday

    Time Temperature Precipitation Wind Pressure Humidity
    00:00 +14°C° 0 mm 1 mps 603 mmHg 46%
    01:00 +13°C° 0 mm 1 mps 603 mmHg 48%
    02:00 +13°C° 0 mm 1 mps 603 mmHg 51%
    03:00 +12°C° 0 mm 1 mps 602 mmHg 53%
    04:00 +12°C° 0 mm 1 mps 602 mmHg 55%
    05:00 +11°C° 0 mm 1 mps 602 mmHg 58%
    06:00 +11°C° 0 mm 1 mps 602 mmHg 60%
    07:00 +13°C° 0 mm 1 mps 603 mmHg 53%
    08:00 +15°C° 0 mm 2 mps 604 mmHg 46%
    09:00 +17°C° 0 mm 2 mps 605 mmHg 39%
    10:00 +18°C° 0 mm 2 mps 605 mmHg 35%
    11:00 +19°C° 0 mm 2 mps 605 mmHg 32%
    12:00 +20°C° 0 mm 2 mps 605 mmHg 29%
    13:00 +21°C° 0 mm 2 mps 605 mmHg 27%
    14:00 +21°C° 0 mm 2 mps 605 mmHg 26%
    15:00 +21°C° 0 mm 2 mps 605 mmHg 25%
    16:00 +20°C° 0 mm 2 mps 605 mmHg 28%
    17:00 +19°C° 0 mm 2 mps 604 mmHg 31%
    18:00 +17°C° 0 mm 2 mps 604 mmHg 34%
    19:00 +16°C° 0 mm 2 mps 604 mmHg 38%
    20:00 +16°C° 0 mm 2 mps 604 mmHg 41%
    21:00 +15°C° 0 mm 2 mps 605 mmHg 45%
    22:00 +14°C° 0 mm 2 mps 605 mmHg 48%
    23:00 +13°C° 0 mm 2 mps 604 mmHg 51%

    Day after tomorrow, 27 September, Thursday

    Time Temperature Precipitation Wind Pressure Humidity
    00:00 +13°C° 0 mm 2 mps 604 mmHg 54%
    01:00 +12°C° 0 mm 2 mps 604 mmHg 57%
    02:00 +12°C° 0 mm 2 mps 604 mmHg 60%
    03:00 +11°C° 0 mm 1 mps 604 mmHg 63%
    04:00 +11°C° 0 mm 1 mps 604 mmHg 65%
    05:00 +10°C° 0 mm 1 mps 604 mmHg 67%
    06:00 +10°C° 0 mm 1 mps 604 mmHg 69%
    07:00 +12°C° 0 mm 1 mps 605 mmHg 61%
    08:00 +14°C° 0 mm 1 mps 606 mmHg 53%
    09:00 +15°C° 0 mm 2 mps 607 mmHg 45%
    10:00 +17°C° 0 mm 2 mps 607 mmHg 42%
    11:00 +18°C° 0 mm 2 mps 607 mmHg 38%
    12:00 +19°C° 0 mm 2 mps 608 mmHg 35%
    13:00 +19°C° 0 mm 2 mps 608 mmHg 33%
    14:00 +20°C° 0 mm 2 mps 607 mmHg 31%
    15:00 +21°C° 0 mm 2 mps 607 mmHg 30%
    16:00 +19°C° 0 mm 2 mps 607 mmHg 33%
    17:00 +18°C° 0 mm 2 mps 607 mmHg 37%
    18:00 +16°C° 0 mm 2 mps 606 mmHg 40%
    19:00 +16°C° 0 mm 1 mps 607 mmHg 44%
    20:00 +15°C° 0 mm 1 mps 607 mmHg 48%
    21:00 +14°C° 0 mm 1 mps 607 mmHg 52%
    22:00 +14°C° 0 mm 1 mps 607 mmHg 54%
    23:00 +13°C° 0 mm 1 mps 606 mmHg 56%

    28 September, Friday

    Time Temperature Precipitation Wind Pressure Humidity
    00:00 +12°C° 0 mm 1 mps 606 mmHg 58%
    01:00 +12°C° 0 mm 1 mps 606 mmHg 60%
    02:00 +11°C° 0 mm 1 mps 606 mmHg 61%
    03:00 +11°C° 0 mm 1 mps 606 mmHg 63%
    04:00 +10°C° 0 mm 1 mps 606 mmHg 64%
    05:00 +10°C° 0 mm 1 mps 606 mmHg 65%
    06:00 +10°C° 0 mm 1 mps 605 mmHg 67%
    07:00 +12°C° 0 mm 1 mps 606 mmHg 59%
    08:00 +14°C° 0 mm 1 mps 607 mmHg 51%
    09:00 +16°C° 0 mm 1 mps 608 mmHg 43%
    10:00 +17°C° 0 mm 2 mps 608 mmHg 40%
    11:00 +18°C° 0 mm 2 mps 608 mmHg 37%
    12:00 +19°C° 0 mm 2 mps 608 mmHg 34%
    13:00 +20°C° 0 mm 2 mps 608 mmHg 33%
    14:00 +20°C° 0 mm 2 mps 608 mmHg 31%
    15:00 +21°C° 0 mm 2 mps 608 mmHg 30%
    16:00 +20°C° 0 mm 2 mps 607 mmHg 34%
    17:00 +18°C° 0 mm 2 mps 607 mmHg 38%
    18:00 +17°C° 0 mm 2 mps 606 mmHg 42%
    19:00 +16°C° 0 mm 1 mps 606 mmHg 46%
    20:00 +15°C° 0 mm 1 mps 606 mmHg 50%
    21:00 +14°C° 0 mm 1 mps 606 mmHg 55%
    22:00 +14°C° 0 mm 1 mps 606 mmHg 57%
    23:00 +13°C° 0 mm 1 mps 606 mmHg 59%

    29 September, Saturday

    Time Temperature Precipitation Wind Pressure Humidity
    00:00 +13°C° 0 mm 1 mps 606 mmHg 61%
    01:00 +12°C° 0 mm 1 mps 605 mmHg 62%
    02:00 +12°C° 0 mm 1 mps 605 mmHg 63%
    03:00 +11°C° 0 mm 1 mps 605 mmHg 64%
    04:00 +11°C° 0 mm 1 mps 604 mmHg 65%
    05:00 +11°C° 0 mm 1 mps 604 mmHg 65%
    06:00 +10°C° 0 mm 1 mps 604 mmHg 66%
    07:00 +12°C° 0 mm 1 mps 605 mmHg 58%
    08:00 +15°C° 0 mm 1 mps 606 mmHg 50%
    09:00 +18°C° 0 mm 1 mps 607 mmHg 42%
    10:00 +18°C° 0 mm 2 mps 607 mmHg 37%
    11:00 +20°C° 0 mm 2 mps 607 mmHg 33%
    12:00 +21°C° 0 mm 2 mps 607 mmHg 28%
    13:00 +21°C° 0 mm 2 mps 607 mmHg 27%
    14:00 +23°C° 0 mm 2 mps 607 mmHg 25%
    15:00 +23°C° 0 mm 2 mps 606 mmHg 23%
    16:00 +21°C° 0 mm 2 mps 606 mmHg 27%
    17:00 +19°C° 0 mm 2 mps 605 mmHg 31%
    18:00 +18°C° 0 mm 1 mps 605 mmHg 35%
    19:00 +18°C° 0 mm 1 mps 605 mmHg 37%
    20:00 +16°C° 0 mm 1 mps 605 mmHg 39%
    21:00 +15°C° 0 mm 1 mps 605 mmHg 41%
    22:00 +15°C° 0 mm 1 mps 605 mmHg 40%
    23:00 +14°C° 0 mm 1 mps 605 mmHg 39%

    30 September, Sunday

    Time Temperature Precipitation Wind Pressure Humidity
    00:00 +14°C° 0 mm 1 mps 604 mmHg 39%
    01:00 +14°C° 0 mm 1 mps 604 mmHg 38%
    02:00 +13°C° 0 mm 1 mps 604 mmHg 38%
    03:00 +13°C° 0 mm 1 mps 604 mmHg 38%
    04:00 +12°C° 0 mm 1 mps 604 mmHg 38%
    05:00 +12°C° 0 mm 1 mps 604 mmHg 38%
    06:00 +12°C° 0 mm 1 mps 604 mmHg 39%
    07:00 +14°C° 0 mm 1 mps 605 mmHg 34%
    08:00 +18°C° 0 mm 1 mps 606 mmHg 29%
    09:00 +20°C° 0 mm 1 mps 607 mmHg 24%
    10:00 +21°C° 0 mm 2 mps 607 mmHg 22%
    11:00 +23°C° 0 mm 2 mps 607 mmHg 21%
    12:00 +24°C° 0 mm 3 mps 608 mmHg 19%
    13:00 +24°C° 0 mm 3 mps 607 mmHg 18%
    14:00 +25°C° 0 mm 3 mps 607 mmHg 18%
    15:00 +25°C° 0 mm 3 mps 607 mmHg 17%
    16:00 +22°C° 0 mm 3 mps 606 mmHg 20%
    17:00 +20°C° 0 mm 2 mps 606 mmHg 23%
    18:00 +19°C° 0 mm 2 mps 605 mmHg 25%
    19:00 +18°C° 0 mm 2 mps 605 mmHg 27%
    20:00 +17°C° 0 mm 2 mps 605 mmHg 28%
    21:00 +18°C° 0 mm 1 mps 606 mmHg 30%
    22:00 +16°C° 0 mm 1 mps 605 mmHg 31%
    23:00 +16°C° 0 mm 1 mps 605 mmHg 32%
    Show more